www.pogodaiklimat.ru

Погода и климат >> Архив погоды >> Индонезия >> Гунунгситоли


ПОГОДА в Гунунгситоли

  • Прогноз погоды в Гунунгситоли
  • Монитор погоды в Гунунгситоли

АРХИВ ПОГОДЫ в Гунунгситоли

Время (UTC), дата Ветер
(напр.,м/с)
 
Видим.   Явления Облачность Т
(С)
Тd
(С)
f
(%)
Тe
(С)
Тes
(С)
Комфортность P
(гПа)
Po
(гПа)
Тmin
(С)
Tmax
(С)
R
(мм)
R24
(мм)
S
(см)
06 12.07 С 3 10 км {гроза} 6/4 450 м
[Cb cap Ac As Ci fib]
+31.4 +25.3 70 +45 +54 опасность
перегрева
1011.4 1010.4
09 12.07 штиль 0 10 км в посл. час гроза {дождь} 6/3 480 м
[Cu med, cong Ac As Ci fib]
+28.9 +22.2 67 +38 +43 очень
душно
1009.9 1008.9 0.0
12 12.07 штиль 0 6000 м {гроза, дождь} 8/4 500 м
[Sc Ac As Ci fib]
+28.0 +24.5 81 +39 +39 очень
душно
1010.3 1009.3 +32.0 0.0
15 12.07 штиль 0 6000 м 8/4 500 м
[Sc Ac As Ci fib]
+25.4 +24.2 93 +35 +35 очень
душно
1013.2 1012.2
18 12.07 Ю 2 5000 м мгла 4/1 500 м
[Sc Ac As Ci fib]
+24.1 +23.3 95 +32 +32 очень
душно
1012.2 1011.1
21 12.07 Ю 2 5000 м гроза без осадков 5/3 450 м
[Cb cap Ac As Ci fib]
+24.7 +22.5 88 +32 +32 очень
душно
1010.4 1009.3
00 13.07 штиль 0 5000 м мгла {гроза} 4/1 420 м
[Sc As op Ci fib]
+23.0 +22.3 96 +31 +32 очень
душно
1011.7 1010.7 +23.0 0.0
03 13.07 штиль 0 7000 м 5/1 450 м
[Cu med, cong As op Ci fib]
+27.4 +24.8 86 +39 +51 опасность
солнечного
удара
1012.4 1011.4
06 13.07 СВ 5 10 км 4/1 480 м
[Cu med, cong Ac As Ci fib]
+32.8 +24.3 61 +45 +52 опасность
перегрева
1010.5 1009.5
09 13.07 З 2 6000 м слаб. дождь {гроза} 4/4 450 м
[Cb cap Ac As Ci fib]
+30.2 +24.8 73 +43 +48 опасность
перегрева
1009.2 1008.2 0.0
12 13.07 штиль 0 6000 м {дождь} 4/4 450 м
[Cb cap Ac As Ci fib]
+26.0 +25.1 95 +37 +37 очень
душно
1009.7 1008.8 +33.0 14
15 13.07 штиль 0 6000 м 5/4 450 м
[Cb cap Ac As Ci fib]
+25.0 +24.2 95 +34 +34 очень
душно
1012.2 1011.3
18 13.07 штиль 0 6000 м 5/3 500 м
[Sc Ac As Ci fib]
+24.5 +24.1 98 +34 +34 очень
душно
1011.1 1010.1
21 13.07 штиль 0 6000 м 6/3 500 м
[Sc Ac As Ci fib]
+24.2 +23.8 98 +33 +33 очень
душно
1009.5 1008.5
00 14.07 штиль 0 6000 м 5/3 450 м
[Cb cap Ac As Ci fib]
+23.0 +22.3 96 +31 +32 очень
душно
1010.1 1009.1 +23.2 14
03 14.07 штиль 0 7000 м 8/4 450 м
[Cb cap Ac As Ci fib]
+26.4 +25.0 92 +38 +45 очень
душно
1011.6 1010.5
06 14.07 В 6 9000 м в посл. час гроза 6/4 450 м
[Cb cap Ac As Ci fib]
+31.9 +25.8 70 +47 +51 опасность
перегрева
1009.4 1008.4
09 14.07 Ю 3 8000 м в посл. час дождь {гроза} 6/4 60 м
[Cb cap Ac As Ci fib]
+25.9 +23.9 89 +36 +39 очень
душно
1007.9 1006.8 6
12 14.07 штиль 0 6000 м 6/4 480 м
[Cu med, cong Ac As Ci fib]
+26.8 +24.7 88 +38 +38 очень
душно
1008.7 1007.8 +32.1 6
15 14.07 В 2 6000 м 8/4 450 м
[Cb cap Ac As Ci fib]
+26.0 +24.8 93 +37 +37 очень
душно
1010.6 1009.7
18 14.07 штиль 0 5000 м мгла 5/3 450 м
[Cb cap Ac As Ci fib]
+25.1 +24.0 94 +35 +35 очень
душно
1010.2 1009.1
21 14.07 Ю 2 5000 м мгла 5/1 500 м
[Sc Ac As Ci fib]
+24.6 +24.1 97 +34 +34 очень
душно
1009.1 1008.1
00 15.07 штиль 0 6000 м в посл. час гроза {дождь} 10/1 480 м
[Cu med, cong As op Ci fib]
+24.4 +23.3 94 +33 +33 очень
душно
1009.9 1008.9 +23.0 0.0
03 15.07 штиль 0 7000 м слаб. дождь 9/4 450 м
[Cb cap Ac As Ci fib]
+25.2 +24.2 94 +35 +41 очень
душно
1011.1 1010.1 1
06 15.07 штиль 0 10 км {дождь} 9/4 450 м
[Cb cap As op Ci fib]
+29.2 +24.6 76 +41 +50 опасность
перегрева
1009.3 1008.3 0.0
09 15.07 СВ 2 10 км 8/4 480 м
[Cu med, cong Ac As Ci fib]
+30.0 +24.2 71 +42 +45 опасность
перегрева
1007.2 1006.2
12 15.07 штиль 0 6000 м 8/6 450 м
[Cb cap Ac As Ci fib]
+27.2 +25.4 90 +40 +40 очень
душно
1008.1 1007.1 +32.4
15 15.07 штиль 0 6000 м 6/4 500 м
[Sc Ac As Ci fib]
+24.8 +23.7 94 +34 +34 очень
душно
1009.7 1008.7
18 15.07 штиль 0 6000 м 4/1 500 м
[Sc Ac As Ci fib]
+23.9 +23.4 97 +32 +32 очень
душно
1009.2 1008.2
21 15.07 штиль 0 6000 м 4/1 500 м
[Sc Ac As Ci fib]
+23.6 +23.2 98 +32 +32 очень
душно
1007.9 1006.9
00 16.07 штиль 0 6000 м слаб. дождь 9/4 450 м
[Cb cap Ac As Ci fib]
+23.6 +23.1 97 +31 +32 очень
душно
1009.2 1008.2 +23.4 0.0 1
03 16.07 штиль 0 8000 м {дождь} 9/4 450 м
[Cb cap Ac As Ci fib]
+26.5 +23.7 85 +36 +42 очень
душно
1011.1 1010.1 0.0
06 16.07 СВ 3 8000 м {дождь} 9/5 450 м
[Cb cap Ac As Ci fib]
+29.0 +24.4 76 +41 +46 опасность
перегрева
1009.7 1008.7 0.0
09 16.07 С 2 10 км 8/5 450 м
[Cb cap Ac As Ci fib]
+28.4 +24.0 77 +39 +42 очень
душно
1008.0 1007.0
12 16.07 штиль 0 6000 м 8/5 450 м
[Cb cap Ac As Ci fib]
+27.9 +25.7 88 +41 +41 опасность
перегрева
1008.0 1007.0 +30.0
15 16.07 штиль 0 6000 м 6/3 500 м
[Sc Ac As Ci fib]
+25.4 +24.7 96 +36 +36 очень
душно
1010.2 1009.2
18 16.07 штиль 0 5000 м мгла 4/1 500 м
[Sc Ac As Ci fib]
+24.4 +23.7 96 +33 +33 очень
душно
1009.7 1008.7
21 16.07 Ю 2 5000 м мгла 4/1 500 м
[Sc Ac As Ci fib]
+23.5 +23.1 98 +31 +31 очень
душно
1008.1 1007.1
00 17.07 штиль 0 5000 м мгла 6/3 450 м
[Cu Sc Ac As Ci fib]
+23.5 +22.8 96 +31 +31 очень
душно
1009.1 1008.1 +23.4 0.0
03 17.07 штиль 0 10 км 5/1 480 м
[Cu med, cong Ac As Ci fib]
+30.4 +24.5 71 +43 +55 опасность
перегрева
1009.3 1008.3
06 17.07 В 4 8000 м слаб. дождь 8/5 450 м
[Cb cap Ac As Ci fib]
+31.4 +24.1 65 +43 +48 опасность
перегрева
1008.0 1007.0 0.0
09 17.07 ЮВ 3 7000 м {дождь} 10/6 450 м
[Cb cap As op]
+27.2 +24.8 87 +39 +39 очень
душно
1006.7 1005.7 0.9
12 17.07 штиль 0 6000 м {дождь} 8/4 480 м
[Cu Sc Ac As Ci fib]
+25.2 +23.9 93 +35 +35 очень
душно
1006.3 1005.3 +31.8 0.4
15 17.07 штиль 0 6000 м 5/3 500 м
[Sc Ac As Ci fib]
+24.2 +23.7 97 +33 +33 очень
душно
1008.7 1007.7
18 17.07 штиль 0 6000 м 5/3 500 м
[Sc Ac As Ci fib]
+23.8 +23.4 98 +32 +32 очень
душно
1008.5 1007.5
21 17.07 штиль 0 6000 м 5/4 500 м
[Sc Ac As Ci fib]
+23.6 +23.2 98 +32 +32 очень
душно
1006.7 1005.7
00 18.07 штиль 0 5000 м мгла 6/3 450 м
[Cu Sc Ac As Ci fib]
+23.2 +22.5 96 +32 +32 очень
душно
1006.7 1005.7 +23.2 1
03 18.07 ЮВ 2 8000 м 6/3 450 м
[Cb cap Ac As Ci fib]
+29.4 +24.6 75 +42 +49 опасность
перегрева
1007.9 1006.9
06 18.07 ЮВ 2 8000 м слаб. дождь 9/5 450 м
[Cb cap Ac As Ci fib]
+29.2 +25.8 82 +44 +49 опасность
перегрева
1006.8 1005.9 1
09 18.07 Ю 2 6000 м слаб. дождь 9/5 450 м
[Cb cap Ac As Ci fib]
+25.3 +24.1 93 +35 +37 очень
душно
1006.2 1005.3 5
12 18.07 штиль 0 5000 м слаб. дождь 9/5 450 м
[Cb cap Ac As Ci fib]
+25.2 +24.4 95 +35 +35 очень
душно
1007.1 1006.2 +30.2 1
15 18.07 ЮЗ 4 5000 м {дождь} 8/4 450 м
[Cb cap Ac As Ci fib]
+25.4 +23.3 88 +34 +34 очень
душно
1008.7 1007.8 0.5
18 18.07 ЮЗ 4 6000 м {дождь} 8/4 450 м
[Cb cap Ac As Ci fib]
+25.4 +23.9 91 +35 +35 очень
душно
1008.5 1007.5 0.5
21 18.07 Ю 2 6000 м 8/4 450 м
[Cb cap Ac As Ci fib]
+24.8 +24.3 97 +34 +34 очень
душно
1006.8 1005.8
00 19.07 Ю 2 5000 м слаб. дождь 9/6 450 м
[Cb cap Ac As Ci fib]
+24.4 +23.7 96 +33 +33 очень
душно
1008.8 1007.8 +23.8 0.0
03 19.07 СЗ 4 5000 м слаб. дождь 9/6 450 м
[Cb cap Ac As Ci fib]
+24.9 +24.1 95 +34 +37 очень
душно
1009.8 1008.8 3

 

Местоположение метеостанции Гунунгситоли (Индонезия): широта 1.50 долгота 97.63 высота над уровнем моря 6 м.

В архиве по умолчанию представлена погода в Гунунгситоли за последнюю неделю. Архивные данные за месяц целиком и за предыдущие месяцы, начиная с января 2011 года, Вы можете получить, выбрав интересующий диапазон дат из раскрывающегося списка и нажав кнопку "Ввод!".


*Определитесь, кто Вы:
робот инопланетянин человек

Внимание! Время в таблицах - всемирное. Для получения местного времени необходимо прибавить поправку, которая равна 7 ч.

Смотрите также архив погоды в соседних городах и на ближайших метеорологических станциях:

Погода в Сиболге (Индонезия) (139 км)
Погода в Медан Полония (Индонезия) (258 км)
Погода в Белаване (Индонезия) (282 км)
Погода в Меулабохе (Индонезия) (349 км)
Погода в Паданге (Индонезия) (402 км)
Погода в Лхоксёмаве (Индонезия) (418 км)
Погода в Пеканбару (Индонезия) (440 км)
Погода в Ситаване (Малайзия) (456 км)
Погода в Куала-Лумпуре (Малайзия) (471 км)
Погода в Куала-Лумпур аэропорту (Малайзия) (472 км)

Пояснения к столбцам:

Ветер - указаны скорость ветра в м/с - средняя за 10 мин, порывы в срок и между сроками (в фигурных скобках) и направление, откуда дует ветер: С - северный, СВ - северо-восточный, В - восточный, ЮВ - юго-восточный, Ю - южный, ЮЗ - юго-западный, З - западный, СЗ - северо-западный.
Видимость - горизонтальная дальность видимости в метрах или километрах. При видимости от 1 до 10 км при отсутствии осадков обычно наблюдается дымка, при ухудшении видимости до 1 км и менее - туман. В сухую погоду видимость может ухудшаться дымом, пылью или мглою.
Явления - указаны атмосферные явления, наблюдавшиеся в срок или в последний час перед сроком; фигурными скобками обозначены явления, наблюдавшиеся между сроками (за 1-3 часа до срока); квадратными скобками обозначены град или гололедные отложения с указанием их диаметра в мм.
Облачность - указаны через наклонную черту общая и нижняя облачность в баллах и высота нижней границы облаков в метрах; квадратными скобками обозначены формы облаков: Ci - перистые, Cs - перисто-слоистые, Cc - перисто-кучевые, Ac - высококучевые, As - высокослоистые, Sc - слоисто-кучевые, Ns - слоисто-дождевые, Cu - кучевые, Cb - кучево-дождевые. Подробнее классификацию облаков см. в Атласе облаков (PDF).
T - Температура воздуха - температура, измеренная на высоте 2 м над землей.
Td - Температура точки росы - температура, при понижении до которой содержащийся в воздухе водяной пар достигнет насыщения.
f - Относительная влажность воздуха - влажноcть воздуха, измеренная на высоте 2 м над землей.
Te - Эффективная температура - температура, которую ощущает одетый по сезону человек в тени. Характеристика душности погоды. При расчете учитывается влияние влажности воздуха и скорости ветра на теплоощущения человека.
Tes - Эффективная температура на солнце - температура, которую ощущает человек, с поправкой на солнечный нагрев. Характеристика знойности погоды. Зависит от высоты солнца над горизонтом, облачности и скорости ветра. Ночью, в пасмурную погоду, а также при ветре 12 м/с и более поправка равна нулю.
P - Атмосферное давление - приведенное к уровню моря атмосферное давление.
Po - Атмосферное давление - измеренное на уровне метеостанции атмосферное давление.
Tmin - Минимальная температура - минимум температуры воздуха на высоте 2 м над землей.
Tmax - Максимальная температура - максимум температуры воздуха на высоте 2 м над землей.
R - Количество осадков - Количество выпавших осадков за период времени, мм. При наведении курсора мыши на число - период времени, за который выпало указанное количество осадков.
R24 - Количество осадков - Количество выпавших осадков за 24 часа, мм.
S - Снежный покров - Высота снежного покрова, см. При наведении курсора мыши на число - состояние снежного покрова и степень покрытия местности в баллах.